Location: Tyler Bend Campground
(35.9875°N, 92.7606°W)
Time: 02:48:28
(UTC-05:00)

CZ-2C R/B - Visible Passes

Search period start: 19 September 2014 00:00
Search period end: 29 September 2014 00:00
Orbit: 670 x 786 km, 98.1° (Epoch: 18 September)

Date Brightness Start Highest point End Pass type
(mag) Time Alt. Az. Time Alt. Az. Time Alt. Az.
19 Sep 3.2 19:32:46 10° SE 19:37:18 33° ENE 19:41:54 10° N visible
19 Sep 4.6 21:11:21 10° SSW 21:15:31 26° W 21:19:47 10° NW visible
20 Sep 2.7 20:22:45 10° S 20:27:50 78° WSW 20:33:03 10° NNW visible
21 Sep 3.1 19:35:52 10° SE 19:40:30 36° ENE 19:45:12 10° N visible
21 Sep 4.7 21:14:43 10° SSW 21:18:47 24° W 21:22:54 10° NW visible
22 Sep 2.8 20:25:58 10° S 20:31:04 72° WSW 20:36:16 10° NNW visible
23 Sep 3.0 19:38:58 10° SE 19:43:42 39° ENE 19:48:30 10° N visible
23 Sep 4.8 21:18:06 10° SW 21:22:02 22° W 21:26:01 10° NW visible
24 Sep 2.9 20:29:12 10° S 20:34:18 66° W 20:39:29 10° NNW visible
25 Sep 2.9 19:42:05 10° SE 19:46:55 42° ENE 19:51:47 10° N visible
25 Sep 4.9 21:21:31 10° SW 21:25:17 20° W 21:29:05 10° NW visible
26 Sep 3.0 20:32:27 10° S 20:37:32 61° W 20:42:41 10° NNW visible
27 Sep 2.8 19:45:13 10° SE 19:50:07 45° ENE 19:55:03 10° N visible
27 Sep 5.0 21:24:58 10° SW 21:28:32 19° W 21:32:09 10° NW visible
28 Sep 3.2 20:35:43 10° S 20:40:46 56° W 20:45:53 10° NNW visible
